Glendale Luke AFB, AZ

6:13 AM MST on December 09, 2019 (GMT -0700)
Luke Air Force Base

Weather History for KLUF - August, 2019

Change the Weather History Date:

Sunday, August 11, 2019

  Actual Average Record
Temperature  
Mean Temperature 92 °F -  
Max Temperature 102 °F 105 °F 114 °F (1933)
Min Temperature 83 °F 74 °F 58 °F (1949)
Cooling Degree Days 28    
Growing Degree Days 42 (Base 50)    
Moisture  
Dew Point 60 °F    
Average Humidity 36    
Maximum Humidity 55    
Minimum Humidity 19    
Precipitation  
Precipitation 0.00 in - - ()
Sea Level Pressure  
Sea Level Pressure 29.84 in    
Wind  
Wind Speed 6 mph (SSE)    
Max Wind Speed 12 mph    
Max Gust Speed -    
Visibility 10 miles    
Events      
Averages and records for this station are not official NWS values.
T = Trace of Precipitation, MM = Missing Value Source: NWS Daily Summary

Daily Weather History Graph

Daily Weather History Graph

Search for Another Location

Airport or City:

Astronomy

Aug. 11, 2019 Rise Set
Actual Time 5:48 AM MST 7:20 PM MST
Civil Twilight 5:22 AM MST 7:46 PM MST
Nautical Twilight 4:50 AM MST 8:18 PM MST
Astronomical Twilight 4:17 AM MST 8:51 PM MST
Moon 4:55 PM MST (8/11) 2:18 AM MST (8/11)
Length of Visible Light 14h 24m
Length of Day
13h 31m
Waxing Gibbous, 87% of the Moon is Illuminated
Aug 11
Waxing Gibbous
Aug 15
Full
Aug 23
Last Quarter
Aug 30
New
Sep 5
First Quarter

Hourly Weather History & Observations

Time (MST) Temp. Heat Index Dew Point Humidity Pressure Visibility Wind Dir Wind Speed Gust Speed Precip Events Conditions
12:58 AM 86.0 °F 87.6 °F 64.6 °F 49% 29.87 in 10.0 mi SSE 5.8 mph - N/A   Clear
1:58 AM 85.1 °F 86.4 °F 64.2 °F 49% 29.87 in 10.0 mi SE 8.1 mph - N/A   Clear
2:58 AM 85.1 °F 86.9 °F 64.9 °F 51% 29.87 in 10.0 mi SE 8.1 mph - N/A   Mostly Cloudy
3:58 AM 85.5 °F 86.8 °F 64.6 °F 49% 29.88 in 10.0 mi ESE 6.9 mph - N/A   Scattered Clouds
4:18 AM 86.0 °F 87.3 °F 64.4 °F 48% 29.89 in 10.0 mi SE 6.9 mph - N/A   Mostly Cloudy
4:28 AM 84.2 °F 85.6 °F 64.4 °F 51% 29.89 in 10.0 mi SSE 4.6 mph - N/A   Scattered Clouds
4:58 AM 84.4 °F 85.9 °F 64.2 °F 51% 29.89 in 10.0 mi SSE 5.8 mph - N/A   Partly Cloudy
5:58 AM 83.7 °F 85.3 °F 65.1 °F 53% 29.91 in 10.0 mi SSE 6.9 mph - N/A   Clear
6:58 AM 84.0 °F 86.3 °F 66.0 °F 55% 29.92 in 10.0 mi SSE 6.9 mph - N/A   Clear
7:58 AM 86.2 °F 88.4 °F 65.8 °F 51% 29.93 in 10.0 mi SE 4.6 mph - N/A   Clear
8:58 AM 88.3 °F 90.2 °F 64.9 °F 46% 29.94 in 10.0 mi ESE 3.5 mph - N/A   Clear
9:58 AM 91.6 °F 93.1 °F 64.4 °F 40% 29.94 in 10.0 mi NE 4.6 mph - N/A   Clear
10:58 AM 93.2 °F 94.5 °F 63.7 °F 37% 29.93 in 10.0 mi SE 5.8 mph - N/A   Clear
11:58 AM 95.9 °F 97.5 °F 63.0 °F 34% 29.87 in 10.0 mi West 4.6 mph - N/A   Partly Cloudy
12:58 PM 98.2 °F 98.9 °F 60.4 °F 29% 29.84 in 10.0 mi SW 3.5 mph - N/A   Partly Cloudy
1:58 PM 99.0 °F 98.1 °F 57.9 °F 25% 29.81 in 10.0 mi SSE 5.8 mph - N/A   Clear
2:58 PM 100.9 °F 101.0 °F 58.6 °F 25% 29.79 in 10.0 mi NNE 3.5 mph - N/A   Clear
3:58 PM 101.3 °F 101.1 °F 58.8 °F 24% 29.77 in 10.0 mi Calm Calm - N/A   Clear
4:58 PM 102.0 °F 102.2 °F 58.3 °F 24% 29.75 in 10.0 mi Calm Calm - N/A   Clear
5:58 PM 101.7 °F 100.6 °F 55.6 °F 22% 29.75 in 10.0 mi WSW 8.1 mph - N/A   Clear
6:58 PM 100.8 °F 99.8 °F 56.1 °F 23% 29.75 in 10.0 mi SSW 4.6 mph - N/A   Clear
7:58 PM 99.5 °F 98.4 °F 56.3 °F 24% 29.75 in 10.0 mi SSE 4.6 mph - N/A   Clear
8:58 PM 98.6 °F 98.5 °F 58.8 °F 27% 29.77 in 10.0 mi SE 3.5 mph - N/A   Clear
9:38 PM 98.6 °F 98.5 °F 59.0 °F 27% 29.78 in 10.0 mi WSW 6.9 mph - N/A   Mostly Cloudy
9:58 PM 96.4 °F - 52.5 °F 23% 29.78 in 10.0 mi SW 9.2 mph - N/A   Scattered Clouds
10:58 PM 94.5 °F - 49.6 °F 22% 29.80 in 10.0 mi SW 10.4 mph - N/A   Clear
11:58 PM 93.4 °F - 45.0 °F 19% 29.81 in 10.0 mi SSW 11.5 mph - N/A   Clear